Location: Peterborough
(44.3091°N, 78.3197°W)
Time: 05:58:43
(UTC-04:00)

Vanguard 2 - Pass Details

Date: 27 March 2023
Orbit: 552 x 2926 km, 32.9° (Epoch: 04 June)

Event Time Altitude Azimuth Distance (km) Brightness Sun altitude
Rises 09:22:12 0° 263° (W) 6,686 11.8 23.5°
Reaches altitude 10° 09:27:07 10° 259° (WSW) 5,507 11.5 24.3°
Maximum altitude 09:41:47 48° 192° (SSW) 2,596 10.7 26.7°
Drops below altitude 10° 09:51:23 10° 122° (ESE) 3,690 12.7 28.3°
Sets 09:54:01 0° 116° (ESE) 4,391 12.7 28.7°
